QPF
0.00 0.01 0.01 0.01 0.02 0.02 0.03 0.01 0.01 0.01 0.01 0.01 0.01 0.01 0.01 0.00 0.01 0.01 0.02 0.03 0.04 0.04 0.03 0.02 0.02 0.03 0.03 0.03 0.03 0.04 0.05 0.05 0.05 0.05 0.05 0.05 0.05 0.05 0.07 0.07 0.07 0.05 0.04
0.00 0.00 0.01 0.01 0.01 0.01 0.04 0.02 0.01 0.01 0.00 0.01 0.01 0.01 0.00 0.00 0.00 0.01 0.01 0.02 0.03 0.04 0.03 0.02 0.02 0.03 0.03 0.03 0.03 0.04 0.04 0.04 0.05 0.05 0.05 0.04 0.03 0.03 0.05 0.05 0.05 0.03 0.03
0.01 0.01 0.01 0.01 0.01 0.01 0.02 0.01 0.00 0.00 0.00 0.01 0.01 0.01 0.00 0.00 0.00 0.00 0.00 0.01 0.01 0.02 0.03 0.03 0.03 0.03 0.03 0.04 0.05 0.05 0.05 0.04 0.04 0.04 0.05 0.04 0.04 0.04 0.04 0.06 0.06 0.05 0.04
0.04 0.04 0.02 0.01 0.01 0.01 0.00 0.00 0.00 0.01 0.01 0.01 0.01 0.01 0.01 0.00 0.00 0.00 0.01 0.02 0.02 0.02 0.02 0.02 0.02 0.03 0.03 0.04 0.05 0.04 0.04 0.04 0.04 0.05 0.05 0.05 0.04 0.04 0.03 0.05 0.06 0.06 0.06
0.02 0.02 0.01 0.02 0.02 0.02 0.01 0.01 0.01 0.01 0.01 0.01 0.02 0.02 0.01 0.01 0.01 0.01 0.01 0.03 0.03 0.02 0.01 0.01 0.01 0.02 0.03 0.04 0.05 0.05 0.05 0.04 0.04 0.04 0.04 0.04 0.04 0.04 0.02 0.02 0.03 0.05 0.06
0.01 0.01 0.01 0.01 0.02 0.02 0.02 0.02 0.01 0.01 0.01 0.02 0.02 0.02 0.01 0.01 0.02 0.02 0.03 0.03 0.02 0.01 0.01 0.01 0.01 0.03 0.03 0.03 0.05 0.06 0.05 0.05 0.05 0.06 0.07 0.06 0.04 0.04 0.03 0.02 0.02 0.04 0.07
0.02 0.01 0.00 0.01 0.01 0.02 0.02 0.03 0.02 0.02 0.02 0.02 0.01 0.02 0.01 0.01 0.02 0.03 0.03 0.03 0.02 0.01 0.01 0.01 0.01 0.02 0.03 0.03 0.04 0.05 0.04 0.04 0.05 0.07 0.07 0.05 0.03 0.03 0.03 0.03 0.03 0.04 0.06
0.01 0.02 0.01 0.01 0.01 0.02 0.02 0.02 0.02 0.01 0.02 0.01 0.01 0.02 0.01 0.01 0.02 0.02 0.03 0.02 0.01 0.01 0.01 0.02 0.02 0.02 0.02 0.02 0.01 0.01 0.02 0.02 0.03 0.04 0.03 0.03 0.03 0.03 0.03 0.03 0.03 0.03 0.05
0.01 0.02 0.03 0.02 0.01 0.01 0.01 0.01 0.02 0.02 0.01 0.01 0.01 0.01 0.01 0.01 0.02 0.02 0.03 0.02 0.01 0.01 0.03 0.03 0.02 0.02 0.02 0.01 0.01 0.01 0.01 0.01 0.01 0.02 0.02 0.03 0.04 0.03 0.02 0.02 0.02 0.03 0.04
0.02 0.02 0.02 0.03 0.02 0.02 0.02 0.02 0.03 0.02 0.01 0.01 0.00 0.01 0.02 0.01 0.01 0.02 0.02 0.01 0.01 0.01 0.02 0.01 0.02 0.01 0.01 0.01 0.01 0.00 0.00 0.00 0.00 0.01 0.02 0.02 0.02 0.02 0.02 0.02 0.02 0.02 0.03
0.03 0.03 0.03 0.04 0.05 0.05 0.06 0.04 0.03 0.02 0.01 0.01 0.02 0.03 0.02 0.01 0.02 0.02 0.02 0.02 0.02 0.02 0.01 0.01 0.01 0.01 0.01 0.01 0.01 0.01 0.01 0.01 0.01 0.00 0.00 0.00 0.01 0.01 0.02 0.03 0.04 0.03 0.04
0.03 0.04 0.04 0.05 0.06 0.06 0.07 0.04 0.04 0.04 0.03 0.04 0.04 0.03 0.02 0.02 0.04 0.04 0.04 0.04 0.03 0.02 0.01 0.00 0.00 0.00 0.01 0.01 0.01 0.01 0.01 0.01 0.01 0.01 0.01 0.00 0.01 0.01 0.02 0.05 0.06 0.04 0.02
0.03 0.04 0.06 0.05 0.05 0.06 0.06 0.05 0.07 0.06 0.05 0.05 0.04 0.03 0.03 0.03 0.04 0.04 0.04 0.03 0.03 0.01 0.00 0.00 0.00 0.00 0.00 0.00 0.00 0.00 0.00 0.00 0.01 0.02 0.03 0.03 0.03 0.02 0.02 0.03 0.04 0.03 0.02
0.03 0.04 0.05 0.04 0.03 0.05 0.06 0.06 0.07 0.07 0.06 0.05 0.04 0.04 0.05 0.06 0.05 0.05 0.03 0.02 0.02 0.01 0.00 0.01 0.01 0.01 0.01 0.01 0.01 0.00 0.00 0.00 0.00 0.00 0.02 0.04 0.05 0.03 0.02 0.01 0.01 0.01 0.01
0.03 0.03 0.04 0.04 0.03 0.04 0.05 0.05 0.05 0.07 0.07 0.06 0.06 0.07 0.08 0.07 0.06 0.05 0.04 0.03 0.03 0.03 0.03 0.02 0.02 0.01 0.01 0.01 0.01 0.01 0.01 0.00 0.01 0.00 0.00 0.01 0.01 0.01 0.01 0.01 0.00 0.00 0.01
0.03 0.04 0.04 0.03 0.04 0.04 0.05 0.05 0.05 0.07 0.09 0.10 0.12 0.11 0.08 0.06 0.04 0.03 0.03 0.03 0.03 0.02 0.02 0.02 0.01 0.01 0.00 0.00 0.01 0.01 0.01 0.01 0.01 0.01 0.00 0.00 0.00 0.00 0.01 0.01 0.01 0.01 0.01
0.04 0.04 0.05 0.06 0.05 0.04 0.04 0.03 0.03 0.05 0.07 0.09 0.10 0.10 0.09 0.06 0.04 0.03 0.03 0.03 0.02 0.02 0.01 0.00 0.00 0.00 0.00 0.00 0.01 0.01 0.01 0.02 0.02 0.01 0.01 0.01 0.01 0.01 0.01 0.01 0.01 0.01 0.01
0.03 0.04 0.04 0.05 0.05 0.04 0.04 0.03 0.03 0.03 0.03 0.03 0.04 0.05 0.06 0.07 0.07 0.07 0.06 0.05 0.04 0.03 0.02 0.01 0.00 0.00 0.00 0.01 0.01 0.01 0.01 0.01 0.02 0.03 0.02 0.02 0.02 0.01 0.01 0.01 0.01 0.01 0.01
0.03 0.04 0.05 0.05 0.05 0.05 0.04 0.03 0.03 0.03 0.03 0.02 0.02 0.03 0.05 0.07 0.08 0.07 0.05 0.03 0.02 0.02 0.01 0.01 0.01 0.01 0.01 0.01 0.01 0.02 0.02 0.02 0.02 0.03 0.03 0.03 0.03 0.02 0.01 0.01 0.01 0.00 0.00
0.05 0.05 0.06 0.05 0.06 0.06 0.06 0.04 0.03 0.03 0.03 0.03 0.03 0.04 0.05 0.06 0.06 0.06 0.05 0.03 0.02 0.02 0.02 0.02 0.02 0.02 0.01 0.01 0.01 0.02 0.02 0.02 0.02 0.02 0.02 0.01 0.01 0.01 0.01 0.01 0.01 0.01 0.01
0.06 0.07 0.06 0.06 0.07 0.08 0.08 0.06 0.04 0.03 0.04 0.05 0.04 0.05 0.07 0.08 0.07 0.06 0.06 0.04 0.03 0.03 0.03 0.04 0.03 0.03 0.03 0.03 0.02 0.02 0.02 0.02 0.02 0.02 0.01 0.01 0.01 0.01 0.01 0.01 0.01 0.01 0.02
0.08 0.08 0.07 0.08 0.08 0.08 0.07 0.07 0.07 0.06 0.07 0.07 0.05 0.05 0.05 0.06 0.06 0.07 0.07 0.06 0.05 0.05 0.04 0.04 0.04 0.04 0.03 0.03 0.02 0.02 0.01 0.01 0.01 0.01 0.01 0.01 0.01 0.01 0.01 0.01 0.02 0.01 0.01
0.12 0.11 0.09 0.10 0.11 0.09 0.08 0.08 0.09 0.09 0.09 0.10 0.09 0.09 0.07 0.06 0.05 0.05 0.05 0.04 0.04 0.04 0.04 0.04 0.04 0.03 0.03 0.03 0.02 0.02 0.02 0.02 0.02 0.01 0.01 0.01 0.01 0.01 0.01 0.01 0.02 0.02 0.02
0.11 0.10 0.09 0.09 0.10 0.12 0.10 0.10 0.12 0.11 0.09 0.10 0.10 0.09 0.07 0.05 0.05 0.05 0.04 0.03 0.03 0.03 0.02 0.02 0.03 0.03 0.03 0.04 0.04 0.03 0.03 0.03 0.02 0.02 0.02 0.03 0.02 0.02 0.02 0.02 0.02 0.02 0.02
0.10 0.08 0.08 0.10 0.12 0.13 0.12 0.10 0.09 0.07 0.07 0.09 0.09 0.08 0.07 0.06 0.05 0.04 0.03 0.03 0.03 0.03 0.03 0.02 0.02 0.02 0.03 0.04 0.04 0.05 0.05 0.05 0.04 0.04 0.04 0.04 0.04 0.04 0.03 0.03 0.03 0.03 0.03
0.08 0.09 0.08 0.08 0.10 0.10 0.11 0.11 0.09 0.09 0.10 0.11 0.11 0.09 0.06 0.05 0.03 0.03 0.02 0.03 0.03 0.03 0.02 0.02 0.02 0.03 0.04 0.05 0.06 0.06 0.06 0.05 0.05 0.04 0.03 0.02 0.02 0.02 0.02 0.03 0.03 0.04 0.04
MSLP
1019.58 1019.83 1020.12 1020.39 1020.60 1020.71 1020.71 1020.62 1020.48 1020.33 1020.20 1020.11 1020.08 1020.10 1020.14 1020.19 1020.22 1020.22 1020.17 1020.07 1019.95 1019.83 1019.72 1019.65 1019.64 1019.71 1019.86 1020.11 1020.44 1020.84 1021.30 1021.80 1022.30 1022.77 1023.17 1023.48 1023.69 1023.79 1023.79 1023.70 1023.57 1023.41 1023.27
1019.51 1019.77 1020.07 1020.36 1020.58 1020.72 1020.76 1020.72 1020.62 1020.50 1020.40 1020.34 1020.32 1020.35 1020.41 1020.48 1020.55 1020.59 1020.60 1020.58 1020.53 1020.46 1020.39 1020.33 1020.30 1020.32 1020.39 1020.53 1020.74 1021.03 1021.39 1021.80 1022.25 1022.70 1023.12 1023.48 1023.76 1023.94 1024.03 1024.03 1023.97 1023.87 1023.77
1019.33 1019.63 1019.96 1020.28 1020.54 1020.72 1020.81 1020.82 1020.78 1020.71 1020.64 1020.60 1020.60 1020.63 1020.69 1020.76 1020.84 1020.91 1020.96 1020.99 1021.00 1020.99 1020.97 1020.94 1020.92 1020.92 1020.94 1021.01 1021.13 1021.31 1021.57 1021.89 1022.26 1022.66 1023.06 1023.43 1023.74 1023.97 1024.12 1024.19 1024.20 1024.17 1024.12
1019.01 1019.37 1019.74 1020.10 1020.41 1020.65 1020.80 1020.88 1020.91 1020.90 1020.89 1020.88 1020.89 1020.92 1020.97 1021.03 1021.10 1021.16 1021.23 1021.29 1021.34 1021.38 1021.41 1021.43 1021.44 1021.44 1021.45 1021.48 1021.54 1021.65 1021.82 1022.05 1022.34 1022.66 1023.01 1023.35 1023.65 1023.90 1024.09 1024.22 1024.29 1024.33 1024.34
1018.53 1018.94 1019.36 1019.77 1020.14 1020.44 1020.67 1020.83 1020.94 1021.01 1021.06 1021.10 1021.14 1021.17 1021.21 1021.25 1021.29 1021.34 1021.40 1021.46 1021.54 1021.62 1021.69 1021.76 1021.81 1021.85 1021.87 1021.89 1021.93 1021.99 1022.09 1022.24 1022.44 1022.68 1022.96 1023.24 1023.51 1023.75 1023.96 1024.12 1024.25 1024.35 1024.43
1017.89 1018.34 1018.80 1019.25 1019.66 1020.02 1020.33 1020.59 1020.80 1020.97 1021.10 1021.21 1021.28 1021.34 1021.37 1021.39 1021.41 1021.43 1021.46 1021.52 1021.60 1021.70 1021.81 1021.93 1022.03 1022.11 1022.17 1022.21 1022.24 1022.28 1022.33 1022.41 1022.53 1022.69 1022.88 1023.10 1023.32 1023.53 1023.74 1023.92 1024.09 1024.24 1024.40
1017.15 1017.60 1018.06 1018.53 1018.97 1019.39 1019.77 1020.12 1020.43 1020.70 1020.93 1021.12 1021.26 1021.35 1021.40 1021.41 1021.41 1021.40 1021.41 1021.45 1021.53 1021.64 1021.79 1021.94 1022.10 1022.23 1022.34 1022.41 1022.46 1022.49 1022.51 1022.54 1022.60 1022.68 1022.79 1022.93 1023.09 1023.27 1023.46 1023.65 1023.85 1024.05 1024.26
1016.37 1016.78 1017.21 1017.65 1018.10 1018.55 1018.98 1019.40 1019.81 1020.18 1020.52 1020.80 1021.01 1021.16 1021.24 1021.26 1021.26 1021.24 1021.23 1021.26 1021.34 1021.47 1021.64 1021.83 1022.03 1022.22 1022.38 1022.49 1022.56 1022.60 1022.62 1022.62 1022.63 1022.65 1022.70 1022.77 1022.88 1023.02 1023.18 1023.37 1023.59 1023.82 1024.07
1015.64 1015.97 1016.33 1016.72 1017.13 1017.57 1018.03 1018.51 1018.98 1019.45 1019.88 1020.25 1020.54 1020.75 1020.88 1020.94 1020.95 1020.94 1020.94 1020.98 1021.07 1021.21 1021.40 1021.63 1021.87 1022.10 1022.31 1022.47 1022.58 1022.65 1022.67 1022.67 1022.65 1022.64 1022.65 1022.68 1022.75 1022.85 1022.99 1023.18 1023.40 1023.65 1023.92
1015.03 1015.25 1015.51 1015.81 1016.16 1016.56 1017.01 1017.51 1018.03 1018.55 1019.05 1019.50 1019.87 1020.15 1020.34 1020.45 1020.51 1020.53 1020.56 1020.62 1020.73 1020.89 1021.11 1021.37 1021.65 1021.93 1022.18 1022.39 1022.54 1022.64 1022.69 1022.71 1022.70 1022.69 1022.68 1022.70 1022.74 1022.83 1022.96 1023.13 1023.35 1023.60 1023.88
1014.59 1014.68 1014.82 1015.01 1015.27 1015.61 1016.03 1016.51 1017.04 1017.59 1018.14 1018.64 1019.07 1019.41 1019.66 1019.84 1019.95 1020.03 1020.11 1020.21 1020.36 1020.56 1020.81 1021.11 1021.42 1021.73 1022.02 1022.26 1022.46 1022.61 1022.70 1022.76 1022.79 1022.80 1022.82 1022.85 1022.90 1022.98 1023.11 1023.27 1023.47 1023.71 1023.98
1014.32 1014.29 1014.30 1014.38 1014.55 1014.80 1015.16 1015.60 1016.11 1016.65 1017.21 1017.73 1018.20 1018.59 1018.91 1019.15 1019.33 1019.48 1019.63 1019.79 1020.00 1020.24 1020.53 1020.85 1021.19 1021.52 1021.84 1022.12 1022.36 1022.55 1022.69 1022.81 1022.89 1022.96 1023.03 1023.10 1023.18 1023.29 1023.42 1023.58 1023.76 1023.98 1024.21
1014.17 1014.03 1013.94 1013.92 1013.99 1014.16 1014.45 1014.82 1015.28 1015.79 1016.33 1016.85 1017.33 1017.76 1018.13 1018.43 1018.69 1018.93 1019.15 1019.39 1019.65 1019.94 1020.27 1020.61 1020.96 1021.31 1021.64 1021.93 1022.20 1022.44 1022.64 1022.82 1022.97 1023.12 1023.25 1023.39 1023.52 1023.66 1023.81 1023.97 1024.14 1024.33 1024.53
1014.07 1013.86 1013.69 1013.59 1013.58 1013.68 1013.89 1014.19 1014.59 1015.04 1015.53 1016.03 1016.51 1016.95 1017.36 1017.73 1018.06 1018.38 1018.69 1019.00 1019.32 1019.66 1020.02 1020.37 1020.73 1021.07 1021.39 1021.69 1021.97 1022.24 1022.48 1022.72 1022.95 1023.18 1023.39 1023.60 1023.80 1023.99 1024.17 1024.34 1024.51 1024.67 1024.83
1013.94 1013.69 1013.48 1013.33 1013.27 1013.30 1013.44 1013.67 1013.99 1014.38 1014.82 1015.27 1015.73 1016.19 1016.62 1017.04 1017.44 1017.84 1018.22 1018.61 1019.00 1019.38 1019.75 1020.11 1020.45 1020.77 1021.07 1021.35 1021.63 1021.90 1022.18 1022.46 1022.76 1023.06 1023.36 1023.65 1023.92 1024.17 1024.39 1024.58 1024.75 1024.89 1025.03
1013.71 1013.45 1013.22 1013.06 1012.96 1012.95 1013.04 1013.21 1013.46 1013.78 1014.15 1014.56 1014.99 1015.44 1015.89 1016.35 1016.81 1017.28 1017.73 1018.18 1018.62 1019.03 1019.41 1019.76 1020.08 1020.36 1020.62 1020.87 1021.13 1021.39 1021.68 1022.00 1022.35 1022.71 1023.08 1023.44 1023.79 1024.09 1024.36 1024.59 1024.77 1024.92 1025.05
1013.34 1013.09 1012.88 1012.71 1012.60 1012.57 1012.61 1012.73 1012.92 1013.18 1013.49 1013.84 1014.24 1014.68 1015.14 1015.63 1016.14 1016.65 1017.16 1017.66 1018.13 1018.57 1018.95 1019.29 1019.57 1019.82 1020.03 1020.24 1020.47 1020.72 1021.01 1021.34 1021.72 1022.13 1022.56 1022.99 1023.40 1023.77 1024.09 1024.36 1024.58 1024.75 1024.89
1012.82 1012.60 1012.41 1012.26 1012.16 1012.11 1012.13 1012.21 1012.34 1012.54 1012.79 1013.10 1013.46 1013.87 1014.33 1014.83 1015.36 1015.91 1016.46 1017.00 1017.49 1017.94 1018.32 1018.64 1018.90 1019.11 1019.29 1019.47 1019.66 1019.89 1020.18 1020.52 1020.92 1021.37 1021.85 1022.33 1022.80 1023.23 1023.61 1023.93 1024.20 1024.41 1024.58
1012.20 1012.01 1011.85 1011.72 1011.63 1011.58 1011.58 1011.62 1011.71 1011.85 1012.04 1012.30 1012.61 1012.99 1013.43 1013.92 1014.46 1015.02 1015.59 1016.14 1016.65 1017.11 1017.49 1017.80 1018.05 1018.24 1018.41 1018.57 1018.75 1018.98 1019.26 1019.62 1020.04 1020.52 1021.03 1021.56 1022.07 1022.56 1023.00 1023.38 1023.70 1023.97 1024.19
1011.51 1011.36 1011.23 1011.12 1011.04 1010.99 1010.97 1010.98 1011.02 1011.11 1011.25 1011.45 1011.71 1012.04 1012.44 1012.90 1013.42 1013.97 1014.53 1015.08 1015.60 1016.06 1016.45 1016.77 1017.03 1017.23 1017.41 1017.58 1017.78 1018.02 1018.32 1018.70 1019.14 1019.65 1020.19 1020.75 1021.31 1021.84 1022.34 1022.78 1023.16 1023.49 1023.77
1010.81 1010.69 1010.58 1010.50 1010.43 1010.37 1010.33 1010.31 1010.32 1010.35 1010.43 1010.56 1010.76 1011.03 1011.37 1011.79 1012.26 1012.77 1013.31 1013.84 1014.35 1014.81 1015.22 1015.57 1015.86 1016.10 1016.32 1016.54 1016.79 1017.07 1017.41 1017.82 1018.30 1018.83 1019.40 1019.99 1020.58 1021.15 1021.69 1022.18 1022.62 1023.01 1023.36
1010.12 1010.03 1009.94 1009.87 1009.81 1009.74 1009.69 1009.64 1009.60 1009.58 1009.60 1009.67 1009.80 1009.99 1010.26 1010.60 1011.01 1011.46 1011.95 1012.45 1012.95 1013.42 1013.85 1014.24 1014.58 1014.90 1015.19 1015.49 1015.81 1016.16 1016.56 1017.02 1017.53 1018.08 1018.67 1019.28 1019.89 1020.49 1021.06 1021.59 1022.08 1022.53 1022.93
1009.44 1009.36 1009.29 1009.22 1009.16 1009.09 1009.01 1008.94 1008.86 1008.80 1008.76 1008.76 1008.82 1008.94 1009.12 1009.38 1009.71 1010.10 1010.53 1010.99 1011.47 1011.94 1012.40 1012.84 1013.26 1013.66 1014.05 1014.45 1014.86 1015.29 1015.77 1016.28 1016.82 1017.40 1018.00 1018.62 1019.23 1019.83 1020.42 1020.98 1021.50 1021.99 1022.44
1008.72 1008.64 1008.57 1008.50 1008.43 1008.35 1008.26 1008.16 1008.06 1007.96 1007.88 1007.83 1007.82 1007.87 1007.98 1008.16 1008.41 1008.73 1009.10 1009.52 1009.98 1010.46 1010.95 1011.44 1011.94 1012.43 1012.93 1013.43 1013.94 1014.46 1015.00 1015.56 1016.14 1016.73 1017.33 1017.94 1018.54 1019.14 1019.72 1020.28 1020.83 1021.35 1021.83
1007.87 1007.78 1007.69 1007.61 1007.53 1007.44 1007.34 1007.23 1007.12 1007.01 1006.90 1006.82 1006.77 1006.77 1006.83 1006.95 1007.13 1007.39 1007.72 1008.11 1008.55 1009.04 1009.57 1010.12 1010.68 1011.27 1011.86 1012.45 1013.05 1013.65 1014.25 1014.85 1015.44 1016.04 1016.62 1017.21 1017.78 1018.35 1018.92 1019.48 1020.03 1020.56 1021.07
1006.80 1006.68 1006.56 1006.46 1006.36 1006.26 1006.16 1006.06 1005.96 1005.86 1005.76 1005.68 1005.63 1005.61 1005.65 1005.74 1005.90 1006.13 1006.43 1006.80 1007.24 1007.75 1008.30 1008.90 1009.54 1010.19 1010.86 1011.53 1012.20 1012.85 1013.49 1014.11 1014.71 1015.29 1015.86 1016.41 1016.95 1017.49 1018.02 1018.57 1019.11 1019.65 1020.18
Thickness
5793 5788 5784 5779 5776 5772 5769 5766 5763 5760 5757 5754 5751 5748 5746 5743 5741 5738 5735 5733 5730 5728 5726 5724 5721 5719 5717 5715 5713 5710 5706 5701 5694 5690 5689 5687 5684 5681 5678 5675 5673 5671 5668
5794 5789 5784 5779 5775 5771 5768 5765 5762 5759 5756 5752 5749 5746 5743 5740 5738 5735 5732 5730 5727 5724 5722 5720 5718 5717 5714 5711 5708 5705 5701 5698 5693 5686 5683 5681 5678 5675 5672 5669 5666 5664 5662
5794 5788 5783 5778 5774 5770 5767 5764 5761 5757 5753 5750 5747 5743 5740 5737 5735 5732 5729 5727 5724 5721 5720 5717 5715 5713 5709 5707 5704 5701 5697 5694 5690 5684 5679 5676 5673 5670 5666 5663 5660 5658 5656
5793 5787 5782 5778 5775 5771 5767 5763 5759 5755 5751 5748 5744 5741 5738 5735 5732 5729 5727 5723 5720 5718 5717 5715 5712 5709 5706 5703 5700 5696 5693 5688 5684 5679 5674 5671 5668 5664 5661 5657 5653 5652 5650
5792 5786 5782 5779 5775 5770 5765 5761 5758 5754 5750 5746 5742 5738 5735 5733 5730 5727 5724 5721 5717 5715 5713 5712 5710 5708 5705 5701 5698 5693 5690 5684 5679 5674 5669 5666 5662 5658 5655 5652 5649 5646 5643
5790 5785 5782 5777 5772 5768 5763 5759 5755 5750 5747 5743 5739 5735 5732 5730 5728 5725 5722 5718 5715 5712 5709 5708 5706 5703 5701 5698 5695 5692 5689 5683 5676 5671 5666 5662 5659 5656 5653 5650 5645 5640 5636
5788 5783 5779 5775 5769 5765 5762 5757 5752 5747 5743 5739 5736 5733 5730 5728 5725 5722 5719 5715 5712 5708 5706 5703 5702 5699 5696 5693 5690 5687 5684 5681 5677 5671 5665 5661 5657 5655 5650 5645 5641 5637 5634
5784 5781 5777 5772 5767 5763 5758 5754 5749 5745 5741 5737 5734 5731 5727 5725 5723 5720 5716 5712 5708 5705 5702 5700 5696 5693 5691 5687 5684 5680 5677 5674 5672 5668 5665 5661 5658 5654 5649 5645 5639 5634 5630
5781 5778 5775 5770 5765 5760 5755 5751 5747 5742 5738 5735 5732 5728 5724 5722 5720 5717 5713 5708 5704 5701 5698 5696 5693 5689 5686 5683 5679 5674 5670 5668 5666 5664 5661 5658 5654 5651 5646 5639 5633 5627 5622
5779 5776 5773 5768 5763 5758 5754 5750 5745 5741 5737 5733 5729 5726 5723 5719 5718 5715 5711 5705 5700 5696 5693 5691 5689 5686 5682 5679 5674 5669 5664 5661 5659 5656 5653 5651 5648 5644 5641 5636 5630 5623 5617
5778 5773 5769 5765 5761 5756 5751 5747 5743 5738 5733 5729 5725 5723 5720 5718 5715 5712 5708 5702 5697 5692 5688 5686 5684 5681 5678 5674 5670 5666 5662 5658 5653 5649 5646 5643 5640 5637 5634 5631 5627 5622 5615
5773 5768 5764 5761 5758 5753 5747 5743 5739 5734 5729 5725 5721 5718 5716 5714 5712 5708 5704 5700 5696 5689 5685 5682 5680 5677 5673 5669 5665 5662 5658 5654 5648 5643 5639 5635 5632 5630 5628 5625 5622 5618 5615
5766 5762 5759 5757 5753 5749 5743 5738 5733 5729 5724 5721 5717 5714 5711 5709 5707 5703 5699 5696 5692 5687 5683 5679 5676 5672 5668 5664 5661 5657 5653 5648 5642 5637 5633 5630 5628 5626 5623 5619 5616 5613 5609
5760 5757 5753 5750 5746 5742 5738 5734 5729 5725 5720 5717 5713 5710 5707 5704 5701 5698 5694 5690 5686 5682 5678 5674 5670 5666 5662 5658 5655 5651 5647 5643 5639 5634 5630 5627 5624 5620 5616 5613 5609 5605 5601
5754 5750 5747 5744 5740 5736 5732 5729 5726 5723 5720 5716 5713 5709 5704 5700 5699 5696 5691 5687 5682 5678 5672 5667 5662 5657 5653 5650 5647 5644 5640 5637 5633 5629 5625 5622 5618 5615 5611 5607 5603 5598 5594
5747 5744 5741 5738 5735 5731 5726 5722 5721 5719 5717 5714 5712 5708 5705 5702 5698 5692 5688 5684 5679 5674 5667 5662 5657 5654 5650 5646 5642 5638 5635 5631 5629 5625 5621 5617 5613 5609 5606 5602 5598 5593 5589
5743 5740 5736 5732 5729 5725 5721 5717 5713 5711 5711 5709 5706 5704 5700 5697 5692 5688 5684 5679 5674 5668 5663 5659 5655 5651 5647 5643 5639 5635 5631 5628 5624 5620 5617 5613 5609 5605 5601 5598 5594 5589 5585
5739 5736 5732 5728 5725 5721 5718 5715 5711 5707 5703 5702 5700 5698 5694 5691 5687 5683 5678 5672 5666 5662 5659 5655 5652 5648 5644 5639 5635 5631 5627 5623 5619 5615 5611 5608 5605 5601 5597 5593 5589 5585 5581
5732 5729 5727 5724 5721 5717 5714 5711 5707 5704 5701 5698 5694 5691 5688 5684 5680 5676 5672 5668 5665 5660 5656 5652 5649 5645 5641 5637 5632 5628 5623 5619 5615 5611 5607 5603 5600 5596 5592 5589 5585 5581 5576
5725 5724 5720 5716 5713 5711 5709 5706 5702 5699 5696 5693 5690 5687 5681 5676 5673 5670 5666 5664 5661 5658 5654 5650 5646 5642 5638 5634 5629 5624 5619 5614 5610 5606 5602 5598 5595 5591 5587 5583 5579 5575 5571
5717 5715 5713 5709 5707 5705 5704 5701 5699 5695 5692 5689 5687 5684 5679 5675 5672 5668 5664 5661 5658 5655 5652 5647 5643 5638 5634 5629 5625 5620 5615 5610 5606 5602 5597 5593 5589 5585 5582 5578 5575 5571 5566
5709 5707 5704 5702 5701 5699 5698 5696 5693 5690 5687 5684 5682 5678 5672 5671 5668 5664 5660 5657 5655 5651 5648 5643 5638 5634 5630 5625 5620 5615 5610 5605 5601 5597 5593 5588 5584 5580 5576 5572 5569 5564 5560
5700 5698 5696 5694 5693 5692 5690 5688 5686 5684 5681 5678 5676 5672 5667 5664 5662 5659 5656 5652 5649 5645 5641 5637 5633 5629 5625 5620 5615 5610 5605 5600 5596 5591 5586 5582 5578 5573 5570 5566 5562 5558 5554
5692 5690 5688 5686 5684 5683 5682 5680 5678 5676 5674 5671 5669 5665 5662 5658 5655 5653 5650 5646 5642 5638 5635 5631 5627 5622 5618 5613 5608 5603 5598 5594 5589 5585 5580 5575 5570 5567 5563 5558 5555 5552 5548
5683 5682 5680 5677 5676 5674 5673 5671 5669 5668 5666 5664 5661 5658 5655 5651 5648 5645 5642 5638 5634 5630 5626 5622 5618 5614 5610 5605 5600 5595 5591 5587 5582 5578 5573 5569 5564 5560 5556 5552 5548 5544 5540
5674 5673 5671 5668 5666 5664 5663 5661 5660 5659 5658 5656 5653 5650 5647 5643 5639 5636 5632 5629 5625 5621 5617 5613 5609 5605 5601 5596 5592 5588 5583 5579 5575 5570 5566 5561 5557 5552 5548 5544 5540 5536 5533